Current Version              Previous Version:    01  02  03  04  05  06  07  08  09  10  11  12  13  14  15  16  17  18  19  20  21  22  23  24  25  26  27  28  29  30  
   31  32  33  34  35  36  37  38  39  40  41  42  43  44  45  46  47  48  49  50  51  52  53  54  55  56  57  58  59  60  

[Printable]
473
ASUS44 KEWX 241302
RWRTX
SOUTH TEXAS REGIONAL WEATHER ROUNDUP
NATIONAL WEATHER SERVICE AUSTIN/SAN ANTONIO TX
800 AM CDT THU APR 24 2014

NOTE: "FAIR" INDICATED FEW OR NO CLOUDS BELOW 12,000 FEET WITH NO
SIGNIFICANT WEATHER AND/OR OBSTRUCTIONS TO VISIBILITY.

* - THESE STATIONS ARE NOT NWS OR FAA STATIONS...AND ARE NOT SUBJECT
    TO NWS AND FAA QUALITY CONTROL.

TXZ171-172-183>190-241400-
TEXAS HILL COUNTRY AND EDWARDS PLATEAU

CITY           SKY/WX    TMP DP  RH WIND       PRES   REMARKS
JUNCTION       MOSUNNY   65  60  84 W5        29.84R
*LLANO         CLOUDY    64  61  88 CALM      29.85R
BURNET         CLOUDY    65  60  84 S7        29.85R
*HORSESHOE BAY CLOUDY    67  60  78 SW3       29.82R
*KERRVILLE     CLOUDY    64  61  90 S9        29.86R
*FREDERICKSBRG CLOUDY    64  60  87 SW14      29.85R
*ROCKSPRINGS   CLOUDY    63  61  94 S8        29.88R
*BOERNE STAGE  CLOUDY    64  61  88 S9        29.84R
*CASTROVILLE   CLOUDY    67  64  93 CALM      29.83R
HONDO          CLOUDY    69  63  81 CALM      29.87R
*UVALDE        CLOUDY    68  66  92 SE5       29.83F FOG
DEL RIO        SUNNY     68  62  81 E5        29.82R
LAUGHLIN AFB   SUNNY     65  61  88 E6        29.83R
CARRIZO SPRGS  CLOUDY    70  63  78 CALM      29.80R
$$

TXZ173-191>194-202-209-217>225-228-241400-
CENTRAL AND SOUTH CENTRAL TEXAS

CITY           SKY/WX    TMP DP  RH WIND       PRES   REMARKS
GEORGETOWN     NOT AVBL
AUSTIN/BERGSTM CLOUDY    67  65  93 S8        29.81S
AUSTIN/MABRY   CLOUDY    67  63  87 VRB6      29.83R
*AUSTIN/EXEC   CLOUDY    66  66 100 S7        29.82R
*LAGO VISTA    CLOUDY    67  62  85 S7        29.82R
SAN MARCOS     CLOUDY    66  61  82 S7        29.84R FOG
NEW BRAUNFELS  CLOUDY    67  65  93 S5        29.81R
RANDOLPH AFB   CLOUDY    66  64  94 S7        29.82R
PT SAN ANTONIO CLOUDY    68  64  88 S6        29.81R
SAN ANTONIO    CLOUDY    69  64  84 S12       29.83R
STINSON FIELD  CLOUDY    69  65  86 SE7       29.81R
*PLEASANTON    MOSUNNY   67  64  90 SE5       29.81R
*LA GRANGE     CLOUDY    67  67  98 SE6       29.82R FOG
*GIDDINGS      CLOUDY    67  65  91 S7        29.86R
*GONZALES      PTSUNNY   67  66  97 SE5       29.82R
$$

TXZ163>164-176>182-195>201-210>213-226-227-235-241400-
SOUTHEAST TEXAS

CITY           SKY/WX    TMP DP  RH WIND       PRES   REMARKS
COLLEGE STN    PTSUNNY   68  65  90 S13       29.84S
*BRYAN         CLOUDY    67  64  90 S10       29.84R
*CALDWELL      MOSUNNY   64  64 100 S8        29.86S
*CROCKETT      MOSUNNY   70  66  88 S7        29.89R
*BRENHAM       CLOUDY    66  65  95 SE5       29.85R FOG
HUNTSVILLE     MOSUNNY   68  64  87 VRB5      29.86S
CONROE         PTSUNNY   68  65  90 SE7       29.88R
HOUSTON BUSH   PTSUNNY   71  66  84 S8        29.88R
HOUSTON HOBBY  MOSUNNY   70  66  87 SE5       29.87R
*HOUSTON SW AP PTSUNNY   66  66 100 CALM      29.88R FOG
PEARLAND       MOSUNNY   71  66  84 S5        29.89R
HOUSTON HOOKS  PTSUNNY   70  67  90 S8        29.87R
ELLINGTON FLD  PTSUNNY   72  70  94 S5        29.89R
SUGAR LAND     SUNNY     70  67  90 SE9       29.87R
*HOUSTON EXEC  MOSUNNY   68  68 100 SE9       29.87S
*CLEVELAND MUN PTSUNNY   66  65  97 CALM      29.89R FOG
*WHARTON       MOSUNNY   67  66  96 SE6       29.86R
$$

TXZ214>216-236>238-241400-
THE UPPER TEXAS COAST

CITY           SKY/WX    TMP DP  RH WIND       PRES   REMARKS
*ORANGE        CLOUDY    70  67  90 S6        29.91R
PORT ARTHUR    PTSUNNY   70  66  87 S6        29.90R
GALVESTON      MOSUNNY   71  69  93 S13       29.89R
ANGLETON       PTSUNNY   70  68  93 S8        29.87R
*BAY CITY      PTSUNNY   71  69  96 S3        29.86R
PALACIOS       PTSUNNY   73  68  84 S12       29.86R
$$

TXZ229>234-239>247-241400-
TEXAS COASTAL BEND AND RIO GRANDE PLAINS

CITY           SKY/WX    TMP DP  RH WIND       PRES   REMARKS
VICTORIA       MOSUNNY   71  68  90 S10       29.85R
*BEEVILLE      MOSUNNY   69  69 100 SE7       29.82R
ROCKPORT       PTSUNNY   73  69  87 S7        29.84R
*PORT ARANSAS  CLOUDY    71  69  93 S7        29.83R
*PORT LAVACA   MOSUNNY   69  67  93 SE6       29.84R
*INGLESIDE     MOSUNNY   73  70  88 S8        29.83R
CORPUS CHRISTI PTSUNNY   73  68  84 SE12      29.82R
CORPUS NAS     PTSUNNY   74  69  85 SE13G21   29.82R
*ROBSTOWN      PTSUNNY   73  69  88 SE7       29.82R
ALICE          PTSUNNY   71  67  87 SE6       29.81R
KINGSVILLE NAS PTSUNNY   73  69  87 SE6       29.81R
COTULLA        CLOUDY    71  64  78 SE10      29.79R
*FAITH RANCH   CLOUDY    72  66  83 CALM      29.83R
LAREDO         CLOUDY    73  66  78 SE12      29.80R
$$

TXZ248>255-241400-
DEEP SOUTH TEXAS

CITY           SKY/WX    TMP DP  RH WIND       PRES   REMARKS
BROWNSVILLE    MOSUNNY   74  71  91 S16G28    29.78R
PORT ISABEL    NOT AVBL
*SOUTH PADRE   LGT RAIN  72  70  94 CALM      29.79S
HARLINGEN      MOSUNNY   73  69  87 S17       29.76R
*HEBBRONVILLE  PTSUNNY   67  65  93 CALM      29.81R
MCALLEN        MOSUNNY   73  69  87 SE13      29.77R
*WESLACO       MOSUNNY   73  67  82 SE14G20   29.75S
FALFURRIAS     PTSUNNY   70  66  88 E3        29.79R
EDINBURG       MOSUNNY   73  68  85 SE6       29.76R
*ZAPATA        CLOUDY    72  65  80 E10       29.76F
$$

TXZ213>215-236>238-242>244-246-247-251-254-255-241400-
CMAN STATIONS

STATION/POSITION TIME  TEMP    WIND        PRES    WAVE
                       AIR SEA DIR/SP/G            HT/PER
                 (UTC) (F)     (DEG/KT/KT) (MB)    (FT/S)
SABINE PASS      1200   70 71  190/  5/  7 1012.1
SEA RIM ST PARK  1200   70     180/  9/ 11 1012.3
NORTH JETTY/GLS  1200   71 73  200/  9/ 11   N/A
EAGLE POINT      1200   72 69  200/ 11/ 12 1011.3
MORGANS POINT    1200   71 69  180/  8/ 11   N/A
MISSION/ARANSAS  1200   72     160/ 12     1011.0
PORT O`CONNOR    1200          160/  9/ 11   N/A
PORT ARANSAS     1200   71 73  150/ 10/ 11 1009.9
MALAQUITE BEACH  1200   71 73  140/  9/ 11 1009.3
BAFFIN BAY       1200   71 71  150/  9/ 11 1009.4
PORT ISABEL      1200   72 73  160/ 12/ 16 1008.9
$$

GMZ080-GMZ150>470-241400-
OFFSHORE BUOY REPORTS

STATION/POSITION TIME  TEMP    WIND        PRES    WAVE
                       AIR SEA DIR/SP/G            HT/PER
                 (UTC) (F)     (DEG/KT/KT) (MB)    (FT/S)
20 E GALVESTON   1300   70 69  160/ 10/ 12 1011.7    3/ 5
35 NE PT MANSFLD 1300   72 71  160/ 12/ 14 1009.1    4/ 6
$$